Year,Month,Day,Hour,Minute,Value (Times are PST for barometer in hPa)
2012,01,21,00,00,980.70
2012,01,21,00,01,980.66
2012,01,21,00,02,980.66
2012,01,21,00,03,980.60
2012,01,21,00,04,980.56
2012,01,21,00,05,980.66
2012,01,21,00,06,980.66
2012,01,21,00,07,980.66
2012,01,21,00,08,980.62
2012,01,21,00,09,980.53
2012,01,21,00,10,980.53
2012,01,21,00,11,980.50
2012,01,21,00,12,980.50
2012,01,21,00,13,980.53
2012,01,21,00,14,980.46
2012,01,21,00,15,980.50
2012,01,21,00,16,980.50
2012,01,21,00,17,980.46
2012,01,21,00,18,980.46
2012,01,21,00,19,980.50
2012,01,21,00,20,980.46
2012,01,21,00,21,980.39
2012,01,21,00,22,980.32
2012,01,21,00,23,980.16
2012,01,21,00,24,980.12
2012,01,21,00,25,980.16
2012,01,21,00,26,980.16
2012,01,21,00,27,980.26
2012,01,21,00,28,980.27
2012,01,21,00,29,980.39
2012,01,21,00,30,980.26
2012,01,21,00,31,980.22
2012,01,21,00,32,980.16
2012,01,21,00,33,980.09
2012,01,21,00,34,980.02
2012,01,21,00,35,980.06
2012,01,21,00,36,980.06
2012,01,21,00,37,980.09
2012,01,21,00,38,980.12
2012,01,21,00,39,980.12
2012,01,21,00,40,980.16
2012,01,21,00,41,980.12
2012,01,21,00,42,980.09
2012,01,21,00,43,980.02
2012,01,21,00,44,980.02
2012,01,21,00,45,980.02
2012,01,21,00,46,980.06
2012,01,21,00,47,980.12
2012,01,21,00,48,980.09
2012,01,21,00,49,980.12
2012,01,21,00,50,980.06
2012,01,21,00,51,980.09
2012,01,21,00,52,979.99
2012,01,21,00,53,979.95
2012,01,21,00,54,979.89
2012,01,21,00,55,979.92
2012,01,21,00,56,979.92
2012,01,21,00,57,979.89
2012,01,21,00,58,979.95
2012,01,21,00,59,979.92
2012,01,21,01,00,979.89
2012,01,21,01,01,979.89
2012,01,21,01,02,979.89
2012,01,21,01,03,979.89
2012,01,21,01,04,979.89
2012,01,21,01,05,979.85
2012,01,21,01,06,979.85
2012,01,21,01,07,979.92
2012,01,21,01,08,979.89
2012,01,21,01,09,979.85
2012,01,21,01,10,979.85
2012,01,21,01,11,979.85
2012,01,21,01,12,979.89
2012,01,21,01,13,979.95
2012,01,21,01,14,979.95
2012,01,21,01,15,979.92
2012,01,21,01,16,979.89
2012,01,21,01,17,979.89
2012,01,21,01,18,979.92
2012,01,21,01,19,979.95
2012,01,21,01,20,979.92
2012,01,21,01,21,979.92
2012,01,21,01,22,979.92
2012,01,21,01,23,979.92
2012,01,21,01,24,979.85
2012,01,21,01,25,979.85
2012,01,21,01,26,979.85
2012,01,21,01,27,979.85
2012,01,21,01,28,979.85
2012,01,21,01,29,979.89
2012,01,21,01,30,979.82
2012,01,21,01,31,979.82
2012,01,21,01,32,979.78
2012,01,21,01,33,979.85
2012,01,21,01,34,979.82
2012,01,21,01,35,979.78
2012,01,21,01,36,979.78
2012,01,21,01,37,979.72
2012,01,21,01,38,979.75
2012,01,21,01,39,979.75
2012,01,21,01,40,979.78
2012,01,21,01,41,979.82
2012,01,21,01,42,979.89
2012,01,21,01,43,979.92
2012,01,21,01,44,979.95
2012,01,21,01,45,980.02
2012,01,21,01,46,980.02
2012,01,21,01,47,980.02
2012,01,21,01,48,980.02
2012,01,21,01,49,980.02
2012,01,21,01,50,980.02
2012,01,21,01,51,979.99
2012,01,21,01,52,979.99
2012,01,21,01,53,979.99
2012,01,21,01,54,980.06
2012,01,21,01,55,980.09
2012,01,21,01,56,980.06
2012,01,21,01,57,979.99
2012,01,21,01,58,979.99
2012,01,21,01,59,979.92
2012,01,21,02,00,979.95
2012,01,21,02,01,979.99
2012,01,21,02,02,980.02
2012,01,21,02,03,980.06
2012,01,21,02,04,980.02
2012,01,21,02,05,980.06
2012,01,21,02,06,980.06
2012,01,21,02,07,980.02
2012,01,21,02,08,980.02
2012,01,21,02,09,980.12
2012,01,21,02,10,980.12
2012,01,21,02,11,980.12
2012,01,21,02,12,980.16
2012,01,21,02,13,980.19
2012,01,21,02,14,980.22
2012,01,21,02,15,980.22
2012,01,21,02,16,980.26
2012,01,21,02,17,980.29
2012,01,21,02,18,980.36
2012,01,21,02,19,980.33
2012,01,21,02,20,980.33
2012,01,21,02,21,980.39
2012,01,21,02,22,980.46
2012,01,21,02,23,980.46
2012,01,21,02,24,980.53
2012,01,21,02,25,980.53
2012,01,21,02,26,980.56
2012,01,21,02,27,980.56
2012,01,21,02,28,980.50
2012,01,21,02,29,980.53
2012,01,21,02,30,980.56
2012,01,21,02,31,980.56
2012,01,21,02,32,980.63
2012,01,21,02,33,980.71
2012,01,21,02,34,980.83
2012,01,21,02,35,980.90
2012,01,21,02,36,981.07
2012,01,21,02,37,981.07
2012,01,21,02,38,981.17
2012,01,21,02,39,981.27
2012,01,21,02,40,981.27
2012,01,21,02,41,981.27
2012,01,21,02,42,981.31
2012,01,21,02,43,981.27
2012,01,21,02,44,981.31
2012,01,21,02,45,981.31
2012,01,21,02,46,981.34
2012,01,21,02,47,981.38
2012,01,21,02,48,981.38
2012,01,21,02,49,981.44
2012,01,21,02,50,981.44
2012,01,21,02,51,981.44
2012,01,21,02,52,981.51
2012,01,21,02,53,981.48
2012,01,21,02,54,981.51
2012,01,21,02,55,981.48
2012,01,21,02,56,981.58
2012,01,21,02,57,981.68
2012,01,21,02,58,981.71
2012,01,21,02,59,981.61
2012,01,21,03,00,981.68
2012,01,21,03,01,981.65
2012,01,21,03,02,981.68
2012,01,21,03,03,981.77
2012,01,21,03,04,981.65
2012,01,21,03,05,981.68
2012,01,21,03,06,981.78
2012,01,21,03,07,981.72
2012,01,21,03,08,981.82
2012,01,21,03,09,981.82
2012,01,21,03,10,981.88
2012,01,21,03,11,981.86
2012,01,21,03,12,981.99
2012,01,21,03,13,981.99
2012,01,21,03,14,981.95
2012,01,21,03,15,982.05
2012,01,21,03,16,981.99
2012,01,21,03,17,982.05
2012,01,21,03,18,982.09
2012,01,21,03,19,982.02
2012,01,21,03,20,982.05
2012,01,21,03,21,982.19
2012,01,21,03,22,982.15
2012,01,21,03,23,982.22
2012,01,21,03,24,982.22
2012,01,21,03,25,982.29
2012,01,21,03,26,982.36
2012,01,21,03,27,982.36
2012,01,21,03,28,982.36
2012,01,21,03,29,982.46
2012,01,21,03,30,982.49
2012,01,21,03,31,982.53
2012,01,21,03,32,982.49
2012,01,21,03,33,982.63
2012,01,21,03,34,982.72
2012,01,21,03,35,982.66
2012,01,21,03,36,982.73
2012,01,21,03,37,982.87
2012,01,21,03,38,982.87
2012,01,21,03,39,982.83
2012,01,21,03,40,983.00
2012,01,21,03,41,982.97
2012,01,21,03,42,983.04
2012,01,21,03,43,983.14
2012,01,21,03,44,983.24
2012,01,21,03,45,983.17
2012,01,21,03,46,983.20
2012,01,21,03,47,983.24
2012,01,21,03,48,983.34
2012,01,21,03,49,983.34
2012,01,21,03,50,983.34
2012,01,21,03,51,983.41
2012,01,21,03,52,983.41
2012,01,21,03,53,983.31
2012,01,21,03,54,983.44
2012,01,21,03,55,983.48
2012,01,21,03,56,983.41
2012,01,21,03,57,983.44
2012,01,21,03,58,983.58
2012,01,21,03,59,983.67
2012,01,21,04,00,983.61
2012,01,21,04,01,983.64
2012,01,21,04,02,983.54
2012,01,21,04,03,983.68
2012,01,21,04,04,983.71
2012,01,21,04,05,983.71
2012,01,21,04,06,983.68
2012,01,21,04,07,983.75
2012,01,21,04,08,983.81
2012,01,21,04,09,983.78
2012,01,21,04,10,983.81
2012,01,21,04,11,983.81
2012,01,21,04,12,983.88
2012,01,21,04,13,983.78
2012,01,21,04,14,983.98
2012,01,21,04,15,983.88
2012,01,21,04,16,983.92
2012,01,21,04,17,983.98
2012,01,21,04,18,984.19
2012,01,21,04,19,984.12
2012,01,21,04,20,984.05
2012,01,21,04,21,984.14
2012,01,21,04,22,984.05
2012,01,21,04,23,984.19
2012,01,21,04,24,984.25
2012,01,21,04,25,984.15
2012,01,21,04,26,984.22
2012,01,21,04,27,984.29
2012,01,21,04,28,984.22
2012,01,21,04,29,984.25
2012,01,21,04,30,984.20
2012,01,21,04,31,984.39
2012,01,21,04,32,984.39
2012,01,21,04,33,984.39
2012,01,21,04,34,984.49
2012,01,21,04,35,984.46
2012,01,21,04,36,984.56
2012,01,21,04,37,984.42
2012,01,21,04,38,984.42
2012,01,21,04,39,984.46
2012,01,21,04,40,984.46
2012,01,21,04,41,984.46
2012,01,21,04,42,984.56
2012,01,21,04,43,984.59
2012,01,21,04,44,984.49
2012,01,21,04,45,984.47
2012,01,21,04,46,984.53
2012,01,21,04,47,984.63
2012,01,21,04,48,984.63
2012,01,21,04,49,984.56
2012,01,21,04,50,984.63
2012,01,21,04,51,984.66
2012,01,21,04,52,984.73
2012,01,21,04,53,984.73
2012,01,21,04,54,984.83
2012,01,21,04,55,984.80
2012,01,21,04,56,984.93
2012,01,21,04,57,984.97
2012,01,21,04,58,984.90
2012,01,21,04,59,984.97
2012,01,21,05,00,985.03
2012,01,21,05,01,985.07
2012,01,21,05,02,985.03
2012,01,21,05,03,985.03
2012,01,21,05,04,985.13
2012,01,21,05,05,985.13
2012,01,21,05,06,985.13
2012,01,21,05,07,985.17
2012,01,21,05,08,985.24
2012,01,21,05,09,985.24
2012,01,21,05,10,985.28
2012,01,21,05,11,985.37
2012,01,21,05,12,985.37
2012,01,21,05,13,985.41
2012,01,21,05,14,985.51
2012,01,21,05,15,985.44
2012,01,21,05,16,985.47
2012,01,21,05,17,985.51
2012,01,21,05,18,985.51
2012,01,21,05,19,985.54
2012,01,21,05,20,985.54
2012,01,21,05,21,985.61
2012,01,21,05,22,985.61
2012,01,21,05,23,985.61
2012,01,21,05,24,985.64
2012,01,21,05,25,985.65
2012,01,21,05,26,985.81
2012,01,21,05,27,985.81
2012,01,21,05,28,985.85
2012,01,21,05,29,985.88
2012,01,21,05,30,985.88
2012,01,21,05,31,985.88
2012,01,21,05,32,985.98
2012,01,21,05,33,985.95
2012,01,21,05,34,986.08
2012,01,21,05,35,986.08
2012,01,21,05,36,985.98
2012,01,21,05,37,986.18
2012,01,21,05,38,986.22
2012,01,21,05,39,986.29
2012,01,21,05,40,986.32
2012,01,21,05,41,986.39
2012,01,21,05,42,986.32
2012,01,21,05,43,986.35
2012,01,21,05,44,986.42
2012,01,21,05,45,986.29
2012,01,21,05,46,986.46
2012,01,21,05,47,986.46
2012,01,21,05,48,986.46
2012,01,21,05,49,986.49
2012,01,21,05,50,986.46
2012,01,21,05,51,986.49
2012,01,21,05,52,986.56
2012,01,21,05,53,986.59
2012,01,21,05,54,986.62
2012,01,21,05,55,986.66
2012,01,21,05,56,986.73
2012,01,21,05,57,986.83
2012,01,21,05,58,986.86
2012,01,21,05,59,986.79
2012,01,21,06,00,986.86
2012,01,21,06,01,986.93
2012,01,21,06,02,986.86
2012,01,21,06,03,986.96
2012,01,21,06,04,986.93
2012,01,21,06,05,986.96
2012,01,21,06,06,986.96
2012,01,21,06,07,987.00
2012,01,21,06,08,987.10
2012,01,21,06,09,987.13
2012,01,21,06,10,987.10
2012,01,21,06,11,987.17
2012,01,21,06,12,987.13
2012,01,21,06,13,987.27
2012,01,21,06,14,987.30
2012,01,21,06,15,987.34
2012,01,21,06,16,987.37
2012,01,21,06,17,987.44
2012,01,21,06,18,987.47
2012,01,21,06,19,987.47
2012,01,21,06,20,987.60
2012,01,21,06,21,987.51
2012,01,21,06,22,987.57
2012,01,21,06,23,987.74
2012,01,21,06,24,987.67
2012,01,21,06,25,987.78
2012,01,21,06,26,987.81
2012,01,21,06,27,987.81
2012,01,21,06,28,987.98
2012,01,21,06,29,987.98
2012,01,21,06,30,988.05
2012,01,21,06,31,988.05
2012,01,21,06,32,988.11
2012,01,21,06,33,988.28
2012,01,21,06,34,988.25
2012,01,21,06,35,988.22
2012,01,21,06,36,988.28
2012,01,21,06,37,988.39
2012,01,21,06,38,988.42
2012,01,21,06,39,988.32
2012,01,21,06,40,988.49
2012,01,21,06,41,988.45
2012,01,21,06,42,988.55
2012,01,21,06,43,988.59
2012,01,21,06,44,988.52
2012,01,21,06,45,988.66
2012,01,21,06,46,988.69
2012,01,21,06,47,988.66
2012,01,21,06,48,988.69
2012,01,21,06,49,988.79
2012,01,21,06,50,988.83
2012,01,21,06,51,988.76
2012,01,21,06,52,988.79
2012,01,21,06,53,988.83
2012,01,21,06,54,988.93
2012,01,21,06,55,989.03
2012,01,21,06,56,989.00
2012,01,21,06,57,989.06
2012,01,21,06,58,989.13
2012,01,21,06,59,989.13
2012,01,21,07,00,989.20
2012,01,21,07,01,989.20
2012,01,21,07,02,989.27
2012,01,21,07,03,989.44
2012,01,21,07,04,989.40
2012,01,21,07,05,989.47
2012,01,21,07,06,989.50
2012,01,21,07,07,989.71
2012,01,21,07,08,989.60
2012,01,21,07,09,989.77
2012,01,21,07,10,989.74
2012,01,21,07,11,989.77
2012,01,21,07,12,989.67
2012,01,21,07,13,989.77
2012,01,21,07,14,989.81
2012,01,21,07,15,989.88
2012,01,21,07,16,989.88
2012,01,21,07,17,989.84
2012,01,21,07,18,989.94
2012,01,21,07,19,989.94
2012,01,21,07,20,989.94
2012,01,21,07,21,990.01
2012,01,21,07,22,990.15
2012,01,21,07,23,990.21
2012,01,21,07,24,990.25
2012,01,21,07,25,990.35
2012,01,21,07,26,990.38
2012,01,21,07,27,990.49
2012,01,21,07,28,990.62
2012,01,21,07,29,990.62
2012,01,21,07,30,990.72
2012,01,21,07,31,990.79
2012,01,21,07,32,990.69
2012,01,21,07,33,990.76
2012,01,21,07,34,990.76
2012,01,21,07,35,990.79
2012,01,21,07,36,990.82
2012,01,21,07,37,990.89
2012,01,21,07,38,990.89
2012,01,21,07,39,990.89
2012,01,21,07,40,990.99
2012,01,21,07,41,991.06
2012,01,21,07,42,991.09
2012,01,21,07,43,991.13
2012,01,21,07,44,991.16
2012,01,21,07,45,991.23
2012,01,21,07,46,991.23
2012,01,21,07,47,991.33
2012,01,21,07,48,991.26
2012,01,21,07,49,991.30
2012,01,21,07,50,991.40
2012,01,21,07,51,991.43
2012,01,21,07,52,991.43
2012,01,21,07,53,991.47
2012,01,21,07,54,991.60
2012,01,21,07,55,991.60
2012,01,21,07,56,991.67
2012,01,21,07,57,991.74
2012,01,21,07,58,991.81
2012,01,21,07,59,991.77
2012,01,21,08,00,991.91
2012,01,21,08,01,991.91
2012,01,21,08,02,991.98
2012,01,21,08,03,992.04
2012,01,21,08,04,992.08
2012,01,21,08,05,992.11
2012,01,21,08,06,992.11
2012,01,21,08,07,992.21
2012,01,21,08,08,992.28
2012,01,21,08,09,992.28
2012,01,21,08,10,992.25
2012,01,21,08,11,992.32
2012,01,21,08,12,992.42
2012,01,21,08,13,992.31
2012,01,21,08,14,992.45
2012,01,21,08,15,992.35
2012,01,21,08,16,992.48
2012,01,21,08,17,992.52
2012,01,21,08,18,992.52
2012,01,21,08,19,992.52
2012,01,21,08,20,992.58
2012,01,21,08,21,992.55
2012,01,21,08,22,992.58
2012,01,21,08,23,992.62
2012,01,21,08,24,992.59
2012,01,21,08,25,992.72
2012,01,21,08,26,992.72
2012,01,21,08,27,992.75
2012,01,21,08,28,992.82
2012,01,21,08,29,992.86
2012,01,21,08,30,992.96
2012,01,21,08,31,992.96
2012,01,21,08,32,992.99
2012,01,21,08,33,993.06
2012,01,21,08,34,993.03
2012,01,21,08,35,993.13
2012,01,21,08,36,993.16
2012,01,21,08,37,993.14
2012,01,21,08,38,993.23
2012,01,21,08,39,993.30
2012,01,21,08,40,993.36
2012,01,21,08,41,993.36
2012,01,21,08,42,993.40
2012,01,21,08,43,993.40
2012,01,21,08,44,993.40
2012,01,21,08,45,993.40
2012,01,21,08,46,993.49
2012,01,21,08,47,993.47
2012,01,21,08,48,993.50
2012,01,21,08,49,993.50
2012,01,21,08,50,993.57
2012,01,21,08,51,993.70
2012,01,21,08,52,993.70
2012,01,21,08,53,993.77
2012,01,21,08,54,993.74
2012,01,21,08,55,993.84
2012,01,21,08,56,993.84
2012,01,21,08,57,993.97
2012,01,21,08,58,994.07
2012,01,21,08,59,994.11
2012,01,21,09,00,994.01
2012,01,21,09,01,994.11
2012,01,21,09,02,994.11
2012,01,21,09,03,994.11
2012,01,21,09,04,994.11
2012,01,21,09,05,994.14
2012,01,21,09,06,994.11
2012,01,21,09,07,994.14
2012,01,21,09,08,994.21
2012,01,21,09,09,994.21
2012,01,21,09,10,994.21
2012,01,21,09,11,994.31
2012,01,21,09,12,994.31
2012,01,21,09,13,994.31
2012,01,21,09,14,994.35
2012,01,21,09,15,994.31
2012,01,21,09,16,994.31
2012,01,21,09,17,994.35
2012,01,21,09,18,994.35
2012,01,21,09,19,994.35
2012,01,21,09,20,994.35
2012,01,21,09,21,994.38
2012,01,21,09,22,994.41
2012,01,21,09,23,994.48
2012,01,21,09,24,994.45
2012,01,21,09,25,994.45
2012,01,21,09,26,994.48
2012,01,21,09,27,994.48
2012,01,21,09,28,994.45
2012,01,21,09,29,994.45
2012,01,21,09,30,994.52
2012,01,21,09,31,994.52
2012,01,21,09,32,994.55
2012,01,21,09,33,994.62
2012,01,21,09,34,994.62
2012,01,21,09,35,994.68
2012,01,21,09,36,994.72
2012,01,21,09,37,994.68
2012,01,21,09,38,994.72
2012,01,21,09,39,994.72
2012,01,21,09,40,994.72
2012,01,21,09,41,994.65
2012,01,21,09,42,994.72
2012,01,21,09,43,994.75
2012,01,21,09,44,994.79
2012,01,21,09,45,994.79
2012,01,21,09,46,994.79
2012,01,21,09,47,994.82
2012,01,21,09,48,994.85
2012,01,21,09,49,994.89
2012,01,21,09,50,994.96
2012,01,21,09,51,994.85
2012,01,21,09,52,994.92
2012,01,21,09,53,994.92
2012,01,21,09,54,994.99
2012,01,21,09,55,994.97
2012,01,21,09,56,995.06
2012,01,21,09,57,995.09
2012,01,21,09,58,995.12
2012,01,21,09,59,995.09
2012,01,21,10,00,995.09
2012,01,21,10,01,995.16
2012,01,21,10,02,995.16
2012,01,21,10,03,995.12
2012,01,21,10,04,995.16
2012,01,21,10,05,995.16
2012,01,21,10,06,995.16
2012,01,21,10,07,995.19
2012,01,21,10,08,995.23
2012,01,21,10,09,995.26
2012,01,21,10,10,995.26
2012,01,21,10,11,995.29
2012,01,21,10,12,995.29
2012,01,21,10,13,995.36
2012,01,21,10,14,995.46
2012,01,21,10,15,995.46
2012,01,21,10,16,995.46
2012,01,21,10,17,995.50
2012,01,21,10,18,995.56
2012,01,21,10,19,995.43
2012,01,21,10,20,995.46
2012,01,21,10,21,995.53
2012,01,21,10,22,995.50
2012,01,21,10,23,995.53
2012,01,21,10,24,995.56
2012,01,21,10,25,995.51
2012,01,21,10,26,995.60
2012,01,21,10,27,995.53
2012,01,21,10,28,995.60
2012,01,21,10,29,995.67
2012,01,21,10,30,995.70
2012,01,21,10,31,995.63
2012,01,21,10,32,995.63
2012,01,21,10,33,995.63
2012,01,21,10,34,995.70
2012,01,21,10,35,995.67
2012,01,21,10,36,995.60
2012,01,21,10,37,995.53
2012,01,21,10,38,995.60
2012,01,21,10,39,995.56
2012,01,21,10,40,995.60
2012,01,21,10,41,995.70
2012,01,21,10,42,995.63
2012,01,21,10,43,995.70
2012,01,21,10,44,995.77
2012,01,21,10,45,995.77
2012,01,21,10,46,995.84
2012,01,21,10,47,995.90
2012,01,21,10,48,995.97
2012,01,21,10,49,995.97
2012,01,21,10,50,996.11
2012,01,21,10,51,996.11
2012,01,21,10,52,996.04
2012,01,21,10,53,995.94
2012,01,21,10,54,996.21
2012,01,21,10,55,996.21
2012,01,21,10,56,996.38
2012,01,21,10,57,996.31
2012,01,21,10,58,996.45
2012,01,21,10,59,996.45
2012,01,21,11,00,996.48
2012,01,21,11,01,996.45
2012,01,21,11,02,996.41
2012,01,21,11,03,996.45
2012,01,21,11,04,996.45
2012,01,21,11,05,996.34
2012,01,21,11,06,996.38
2012,01,21,11,07,996.34
2012,01,21,11,08,996.41
2012,01,21,11,09,996.34
2012,01,21,11,10,996.34
2012,01,21,11,11,996.34
2012,01,21,11,12,996.38
2012,01,21,11,13,996.31
2012,01,21,11,14,996.34
2012,01,21,11,15,996.38
2012,01,21,11,16,996.34
2012,01,21,11,17,996.45
2012,01,21,11,18,996.38
2012,01,21,11,19,996.41
2012,01,21,11,20,996.41
2012,01,21,11,21,996.38
2012,01,21,11,22,996.41
2012,01,21,11,23,996.45
2012,01,21,11,24,996.45
2012,01,21,11,25,996.41
2012,01,21,11,26,996.45
2012,01,21,11,27,996.48
2012,01,21,11,28,996.55
2012,01,21,11,29,996.55
2012,01,21,11,30,996.58
2012,01,21,11,31,996.51
2012,01,21,11,32,996.55
2012,01,21,11,33,996.55
2012,01,21,11,34,996.61
2012,01,21,11,35,996.65
2012,01,21,11,36,996.72
2012,01,21,11,37,996.78
2012,01,21,11,38,996.85
2012,01,21,11,39,996.85
2012,01,21,11,40,996.82
2012,01,21,11,41,996.75
2012,01,21,11,42,996.92
2012,01,21,11,43,996.92
2012,01,21,11,44,996.99
2012,01,21,11,45,997.05
2012,01,21,11,46,997.12
2012,01,21,11,47,997.02
2012,01,21,11,48,996.92
2012,01,21,11,49,996.95
2012,01,21,11,50,996.95
2012,01,21,11,51,996.99
2012,01,21,11,52,996.99
2012,01,21,11,53,996.95
2012,01,21,11,54,996.95
2012,01,21,11,55,996.99
2012,01,21,11,56,997.05
2012,01,21,11,57,997.05
2012,01,21,11,58,997.12
2012,01,21,11,59,997.12
2012,01,21,12,00,997.22
2012,01,21,12,01,997.26
2012,01,21,12,02,997.26
2012,01,21,12,03,997.22
2012,01,21,12,04,997.26
2012,01,21,12,05,997.33
2012,01,21,12,06,997.36
2012,01,21,12,07,997.36
2012,01,21,12,08,997.43
2012,01,21,12,09,997.39
2012,01,21,12,10,997.39
2012,01,21,12,11,997.43
2012,01,21,12,12,997.36
2012,01,21,12,13,997.39
2012,01,21,12,14,997.36
2012,01,21,12,15,997.43
2012,01,21,12,16,997.43
2012,01,21,12,17,997.56
2012,01,21,12,18,997.60
2012,01,21,12,19,997.56
2012,01,21,12,20,997.53
2012,01,21,12,21,997.53
2012,01,21,12,22,997.56
2012,01,21,12,23,997.60
2012,01,21,12,24,997.56
2012,01,21,12,25,997.63
2012,01,21,12,26,997.63
2012,01,21,12,27,997.63
2012,01,21,12,28,997.60
2012,01,21,12,29,997.63
2012,01,21,12,30,997.66
2012,01,21,12,31,997.70
2012,01,21,12,32,997.73
2012,01,21,12,33,997.70
2012,01,21,12,34,997.80
2012,01,21,12,35,997.80
2012,01,21,12,36,997.87
2012,01,21,12,37,997.90
2012,01,21,12,38,997.94
2012,01,21,12,39,997.94
2012,01,21,12,40,997.97
2012,01,21,12,41,998.04
2012,01,21,12,42,998.04
2012,01,21,12,43,998.04
2012,01,21,12,44,998.04
2012,01,21,12,45,998.07
2012,01,21,12,46,998.07
2012,01,21,12,47,998.17
2012,01,21,12,48,998.08
2012,01,21,12,49,998.07
2012,01,21,12,50,998.07
2012,01,21,12,51,998.10
2012,01,21,12,52,998.04
2012,01,21,12,53,998.10
2012,01,21,12,54,998.14
2012,01,21,12,55,998.07
2012,01,21,12,56,998.10
2012,01,21,12,57,998.07
2012,01,21,12,58,998.14
2012,01,21,12,59,998.14
2012,01,21,13,00,998.14
2012,01,21,13,01,998.17
2012,01,21,13,02,998.21
2012,01,21,13,03,998.17
2012,01,21,13,04,998.17
2012,01,21,13,05,998.24
2012,01,21,13,06,998.17
2012,01,21,13,07,998.21
2012,01,21,13,08,998.24
2012,01,21,13,09,998.21
2012,01,21,13,10,998.24
2012,01,21,13,11,998.27
2012,01,21,13,12,998.21
2012,01,21,13,13,998.21
2012,01,21,13,14,998.27
2012,01,21,13,15,998.24
2012,01,21,13,16,998.34
2012,01,21,13,17,998.38
2012,01,21,13,18,998.31
2012,01,21,13,19,998.38
2012,01,21,13,20,998.44
2012,01,21,13,21,998.51
2012,01,21,13,22,998.48
2012,01,21,13,23,998.58
2012,01,21,13,24,998.65
2012,01,21,13,25,998.68
2012,01,21,13,26,998.78
2012,01,21,13,27,998.85
2012,01,21,13,28,998.95
2012,01,21,13,29,998.95
2012,01,21,13,30,998.88
2012,01,21,13,31,998.92
2012,01,21,13,32,998.99
2012,01,21,13,33,999.02
2012,01,21,13,34,998.92
2012,01,21,13,35,999.02
2012,01,21,13,36,999.05
2012,01,21,13,37,999.15
2012,01,21,13,38,999.15
2012,01,21,13,39,999.09
2012,01,21,13,40,999.15
2012,01,21,13,41,999.09
2012,01,21,13,42,999.15
2012,01,21,13,43,999.22
2012,01,21,13,44,999.19
2012,01,21,13,45,999.22
2012,01,21,13,46,999.22
2012,01,21,13,47,999.22
2012,01,21,13,48,999.10
2012,01,21,13,49,999.22
2012,01,21,13,50,999.15
2012,01,21,13,51,999.29
2012,01,21,13,52,999.39
2012,01,21,13,53,999.36
2012,01,21,13,54,999.36
2012,01,21,13,55,999.32
2012,01,21,13,56,999.49
2012,01,21,13,57,999.32
2012,01,21,13,58,999.43
2012,01,21,13,59,999.46
2012,01,21,14,00,999.43
2012,01,21,14,01,999.55
2012,01,21,14,02,999.49
2012,01,21,14,03,999.63
2012,01,21,14,04,999.66
2012,01,21,14,05,999.70
2012,01,21,14,06,999.70
2012,01,21,14,07,999.73
2012,01,21,14,08,999.70
2012,01,21,14,09,999.66
2012,01,21,14,10,999.70
2012,01,21,14,11,999.70
2012,01,21,14,12,999.83
2012,01,21,14,13,999.76
2012,01,21,14,14,999.76
2012,01,21,14,15,999.87
2012,01,21,14,16,999.93
2012,01,21,14,17,999.97
2012,01,21,14,18,1000.00
2012,01,21,14,19,1000.00
2012,01,21,14,20,1000.07
2012,01,21,14,21,1000.10
2012,01,21,14,22,1000.17
2012,01,21,14,23,1000.14
2012,01,21,14,24,1000.27
2012,01,21,14,25,1000.27
2012,01,21,14,26,1000.31
2012,01,21,14,27,1000.37
2012,01,21,14,28,1000.41
2012,01,21,14,29,1000.41
2012,01,21,14,30,1000.44
2012,01,21,14,31,1000.44
2012,01,21,14,32,1000.51
2012,01,21,14,33,1000.51
2012,01,21,14,34,1000.58
2012,01,21,14,35,1000.58
2012,01,21,14,36,1000.61
2012,01,21,14,37,1000.61
2012,01,21,14,38,1000.61
2012,01,21,14,39,1000.64
2012,01,21,14,40,1000.68
2012,01,21,14,41,1000.78
2012,01,21,14,42,1000.88
2012,01,21,14,43,1000.95
2012,01,21,14,44,1000.88
2012,01,21,14,45,1000.88
2012,01,21,14,46,1000.88
2012,01,21,14,47,1000.95
2012,01,21,14,48,1000.98
2012,01,21,14,49,1001.02
2012,01,21,14,50,1001.02
2012,01,21,14,51,1001.02
2012,01,21,14,52,1000.98
2012,01,21,14,53,1000.95
2012,01,21,14,54,1001.05
2012,01,21,14,55,1001.05
2012,01,21,14,56,1001.12
2012,01,21,14,57,1001.02
2012,01,21,14,58,1001.02
2012,01,21,14,59,1001.12
2012,01,21,15,00,1001.15
2012,01,21,15,01,1001.12
2012,01,21,15,02,1001.12
2012,01,21,15,03,1001.05
2012,01,21,15,04,1001.02
2012,01,21,15,05,1001.12
2012,01,21,15,06,1001.12
2012,01,21,15,07,1001.15
2012,01,21,15,08,1001.15
2012,01,21,15,09,1001.08
2012,01,21,15,10,1001.12
2012,01,21,15,11,1001.22
2012,01,21,15,12,1001.36
2012,01,21,15,13,1001.52
2012,01,21,15,14,1001.63
2012,01,21,15,15,1001.59
2012,01,21,15,16,1001.80
2012,01,21,15,17,1001.93
2012,01,21,15,18,1002.00
2012,01,21,15,19,1002.00
2012,01,21,15,20,1002.13
2012,01,21,15,21,1002.10
2012,01,21,15,22,1002.20
2012,01,21,15,23,1002.29
2012,01,21,15,24,1002.41
2012,01,21,15,25,1002.44
2012,01,21,15,26,1002.54
2012,01,21,15,27,1002.54
2012,01,21,15,28,1002.57
2012,01,21,15,29,1002.64
2012,01,21,15,30,1002.74
2012,01,21,15,31,1002.64
2012,01,21,15,32,1002.61
2012,01,21,15,33,1002.54
2012,01,21,15,34,1002.64
2012,01,21,15,35,1002.68
2012,01,21,15,36,1002.64
2012,01,21,15,37,1002.74
2012,01,21,15,38,1002.74
2012,01,21,15,39,1002.74
2012,01,21,15,40,1002.68
2012,01,21,15,41,1002.74
2012,01,21,15,42,1002.74
2012,01,21,15,43,1002.74
2012,01,21,15,44,1002.71
2012,01,21,15,45,1002.74
2012,01,21,15,46,1002.81
2012,01,21,15,47,1002.81
2012,01,21,15,48,1002.78
2012,01,21,15,49,1002.85
2012,01,21,15,50,1002.81
2012,01,21,15,51,1002.88
2012,01,21,15,52,1002.91
2012,01,21,15,53,1002.98
2012,01,21,15,54,1002.98
2012,01,21,15,55,1002.98
2012,01,21,15,56,1002.91
2012,01,21,15,57,1003.01
2012,01,21,15,58,1002.98
2012,01,21,15,59,1003.05
2012,01,21,16,00,1003.01
2012,01,21,16,01,1003.01
2012,01,21,16,02,1003.12
2012,01,21,16,03,1003.08
2012,01,21,16,04,1003.18
2012,01,21,16,05,1003.15
2012,01,21,16,06,1003.15
2012,01,21,16,07,1003.15
2012,01,21,16,08,1003.18
2012,01,21,16,09,1003.25
2012,01,21,16,10,1003.29
2012,01,21,16,11,1003.22
2012,01,21,16,12,1003.22
2012,01,21,16,13,1003.25
2012,01,21,16,14,1003.29
2012,01,21,16,15,1003.25
2012,01,21,16,16,1003.32
2012,01,21,16,17,1003.39
2012,01,21,16,18,1003.46
2012,01,21,16,19,1003.49
2012,01,21,16,20,1003.52
2012,01,21,16,21,1003.56
2012,01,21,16,22,1003.56
2012,01,21,16,23,1003.62
2012,01,21,16,24,1003.62
2012,01,21,16,25,1003.59
2012,01,21,16,26,1003.62
2012,01,21,16,27,1003.62
2012,01,21,16,28,1003.62
2012,01,21,16,29,1003.62
2012,01,21,16,30,1003.59